This is the latest recevied weather packets stored in our database for station/object DF2AP-13. If no packets are shown the sender has not sent any weather packets the latest 10 day(s).
| Time | Temp. | Humidity | Pressure | Rain* | Wind** | Luminosity | Snow |
|---|---|---|---|---|---|---|---|
| 1777596927 | 3.33° C | 82% | 1032.3 hPa | - | - | - | - |
| 1777596327 | 3.33° C | 81% | 1032.3 hPa | - | - | - | - |
| 1777595727 | 3.33° C | 81% | 1032.4 hPa | - | - | - | - |
| 1777595127 | 3.33° C | 79% | 1032.5 hPa | - | - | - | - |
| 1777594527 | 3.33° C | 79% | 1032.5 hPa | - | - | - | - |
| 1777593927 | 3.33° C | 80% | 1032.4 hPa | - | - | - | - |
| 1777593327 | 3.89° C | 81% | 1032.3 hPa | - | - | - | - |
| 1777592727 | 3.89° C | 80% | 1032.1 hPa | - | - | - | - |
| 1777592127 | 3.89° C | 79% | 1032.1 hPa | - | - | - | - |
| 1777591527 | 3.89° C | 77% | 1032.3 hPa | - | - | - | - |
| 1777590927 | 4.44° C | 74% | 1032.3 hPa | - | - | - | - |
| 1777590327 | 4.44° C | 73% | 1032.3 hPa | - | - | - | - |
| 1777589728 | 4.44° C | 72% | 1032.3 hPa | - | - | - | - |
| 1777589127 | 5° C | 73% | 1032.1 hPa | - | - | - | - |
| 1777588527 | 5.56° C | 73% | 1032 hPa | - | - | - | - |
| 1777587927 | 5.56° C | 72% | 1032 hPa | - | - | - | - |
| 1777587327 | 6.11° C | 72% | 1032 hPa | - | - | - | - |
| 1777586727 | 6.11° C | 71% | 1032.1 hPa | - | - | - | - |
| 1777586127 | 6.11° C | 69% | 1032 hPa | - | - | - | - |
| 1777585527 | 6.11° C | 68% | 1032.1 hPa | - | - | - | - |
| 1777584933 | 6.11° C | 66% | 1032.1 hPa | - | - | - | - |
| 1777584327 | 6.67° C | 65% | 1032.1 hPa | - | - | - | - |
| 1777583727 | 6.67° C | 64% | 1032 hPa | - | - | - | - |
| 1777583127 | 7.22° C | 62% | 1031.9 hPa | - | - | - | - |
| 1777582527 | 7.78° C | 61% | 1031.8 hPa | - | - | - | - |
* Rain since midnight (hover to see other rain measurements)
** Current wind speed in m/s (hover to see current wind gust speed)